COSMOS 1486

Satellite information

Favourite Embed

Satellite Type and Status

PAYLOADIN ORBIT

Key statistics

Satellite COSMOS 1486 at a glance.

Uptime

15314

Days in orbit

Revolutions

≈ 14.3

Per day

Orbit

LEO

Low Earth Orbit

Inclination

74.1

Latest

Satellite identification and parameters

Extended collection of information and parameters for COSMOS 1486.

Object identification

Identified? True

Debris? False

Object name: COSMOS 1486

International designator: 1983-079A

Object number (NORAD): 14240

Object ID (CCSDS): 14240

Country: COMMONWEALTH OF INDEPENDENT STATES (CIS)

Current information (Y/N): Y

RCS size: LARGE

Orbital parameters

Period: 100.368 minutes

Inclination: 74.0584 deg

SMA: 7154.119 km

Apoapsis: 786.201 km

Periapsis: 765.766 km

RAAN: 323.4407 deg

Eccentricy: 0.0014282

Argument of periapsis: 323.2053 deg

Mean anomaly: 112.4924 deg

Mean motion: 14.34724573 rev/day

Mean motion (dot): 0.00000081 rev/day2

B* drag term: 0.000037681 1/REarth

Two-line elements (TLE)

Creation date: July 6, 2025, 6:05 p.m.

Reference frame: TEME

Reference center: EARTH

Epoch: July 6, 2025, 1:40 p.m. UTC

TLE line 0: 0 COSMOS 1486

TLE line 1: 1 14240U 83079A 25187.56978020 .00000081 00000-0 37681-4 0 9996

TLE line 2: 2 14240 74.0584 323.4407 0014282 323.2053 112.4924 14.34724573192183

Live tracking on map

Real-time ground track for satellite COSMOS 1486.

In-orbit conjunctions

A list of the most updated potential collisions computed for object COSMOS 1486.

Target Orbit TCA Probability of collision Miss distance Type
CZ-6A DEB SSO 2025-04-04 15:12:16 0.0003981203 914.0 (m) DEBRIS
FENGYUN 1C DEB SSO 2025-01-22 13:10:26 0.000105102 773.0 (m) DEBRIS
CZ-4 DEB SSO 2024-10-12 05:56:22 0.0004539119 202.0 (m) DEBRIS
CZ-4 DEB SSO 2024-06-20 23:50:31 0.001027099 127.0 (m) DEBRIS

Associated space launch

Military communications satellite

COSMOS 1486 was lifted into orbit during the mission ‘Kosmos-3M | Strela-2M 32’, on board a Kosmos-3M space rocket.

The launch took place on Aug. 3, 1983, 12:40 p.m. from 132/2.

For more information about the launch, click the button.

Launch to space Kosmos-3M | Strela-2M 32
Kosmos-3M | Strela-2M 32

Agency: N/A

Status: Launch Successful

Launch date: Aug. 3, 1983, 12:40 p.m. UTC

Rocket: Kosmos-3M

Launch pad: 132/2

Location: Plesetsk Cosmodrome, Russian Federation

...

Latest news about this satellite

There are no fresh news available about this satellite. Check back as we update our databases every day.


Newsletter sign-up

Weekly statistics, charts and insights to help you stay on top of the space industry.